Flag for Australia Weather past 2 weeks in Hobart, Tasmania, Australia

Now
68 °F

Sunny.


Feels Like: 68 °F
Forecast: 53 / 65 °F
Wind: 12 mph from Northwest

Location: Hobart Airport

Current Time: Mar 3, 2015 at 3:50:56 PM

Latest Report: Mar 3, 2015 at 3:00 PM


Visibility: 10 mi

Pressure: 29.89 "Hg

Humidity: 26%

Dew point: 32 °F

Location of HobartLocation

Historic Weather in Hobart — Graph

°F

Hobart temperature yesterday

Maximum temperature yesterday: 68 °F (at 7:00 PM)
Minimum temperature yesterday: 43 °F (at 3:30 AM)
Average temperature yesterday: 56 °F

Past Weeks' High & Low Weather Summary

 TemperatureHumidityPressure
High97 °F (Feb 22, 3:00 PM)100% (Feb 18, 2:30 AM)30.27 "Hg (Feb 18, 2:30 AM)
Low43 °F (Mar 2, 3:30 AM)19% (Feb 22, 3:00 PM)29.39 "Hg (Feb 28, 7:30 PM)
Average63 °F64%29.94 "Hg
* Reported Feb 16 3:00 PM — Mar 3 3:00 PM, Hobart, Weather by CustomWeather, © 2015

Note: Actual official high and low records may vary slightly from our data, if they occured in-between our weather recording intervals... More about our weather records

Advertising

Hobart weather history for previous 24 hours

 ConditionsComfort  
Time TempWeatherWind HumidityBarometerVisibility
3:00 PM
Tue, Mar 3
68 °FSunny.12 mph26%29.89 "Hg10 mi
1:30 PM68 °FPassing clouds.9 mph28%29.92 "HgN/A
1:00 PM64 °FSunny.10 mph30%29.92 "Hg10 mi
12:30 PM66 °FSunny.14 mph26%29.95 "Hg10 mi
12:00 PM66 °FSunny.12 mph28%29.95 "Hg10 mi
11:30 AM64 °FSunny.15 mph34%29.95 "Hg10 mi
11:00 AM63 °FScattered clouds.3 mph37%29.95 "HgN/A
10:30 AM61 °FScattered clouds.7 mph52%29.95 "HgN/A
10:00 AM61 °FPartly sunny.6 mph55%29.95 "HgN/A
9:30 AM61 °FScattered clouds.8 mph63%29.95 "HgN/A
9:00 AM61 °FScattered clouds.5 mph63%29.95 "HgN/A
8:30 AM57 °FScattered clouds.5 mph72%29.95 "HgN/A
8:00 AM57 °FBroken clouds.6 mph77%29.95 "HgN/A
7:30 AM55 °FScattered showers. Broken clouds.6 mph82%29.95 "HgN/A
7:00 AM55 °FScattered showers. Broken clouds.9 mph82%29.92 "HgN/A
6:00 AM55 °FSprinkles. Partly cloudy.7 mph72%29.89 "HgN/A
5:30 AM55 °FPassing clouds.7 mph63%29.89 "HgN/A
5:00 AM57 °FPassing clouds.9 mph59%29.86 "HgN/A
4:30 AM57 °FPassing clouds.5 mph55%29.86 "HgN/A
4:00 AM57 °FPassing clouds.7 mph59%29.86 "HgN/A
3:30 AM55 °FPassing clouds.7 mph63%29.86 "HgN/A
3:00 AM55 °FPassing clouds.7 mph59%29.86 "HgN/A
2:30 AM55 °FPassing clouds.7 mph59%29.86 "HgN/A
2:00 AM57 °FPassing clouds.7 mph55%29.86 "HgN/A
1:30 AM57 °FPassing clouds.9 mph55%29.86 "HgN/A
1:00 AM59 °FPassing clouds.10 mph48%29.89 "HgN/A
12:30 AM59 °FPassing clouds.12 mph48%29.89 "HgN/A
12:00 AM57 °FPassing clouds.8 mph55%29.89 "HgN/A
11:30 PM
Mon, Mar 2
57 °FPassing clouds.15 mph51%29.89 "HgN/A
11:00 PM55 °FPassing clouds.9 mph77%29.92 "HgN/A
10:30 PM55 °FPassing clouds.2 mph77%29.89 "HgN/A
10:00 PM57 °FClear.8 mph77%29.89 "Hg10 mi
9:30 PM59 °FClear.10 mph72%29.89 "Hg10 mi
9:00 PM61 °FClear.15 mph72%29.86 "Hg10 mi
8:30 PM64 °FPassing clouds.8 mph40%29.83 "HgN/A
8:00 PM66 °FPassing clouds.12 mph37%29.83 "HgN/A
7:30 PM68 °FPartly sunny.12 mph35%29.83 "HgN/A
7:00 PM68 °FSunny.8 mph30%29.83 "HgN/A
6:30 PM64 °FPartly sunny.7 mph60%29.80 "HgN/A
6:00 PM64 °FBroken clouds.7 mph60%29.83 "HgN/A
5:30 PM64 °FPartly sunny.7 mph60%29.83 "HgN/A
5:00 PM66 °FPartly sunny.6 mph56%29.83 "HgN/A
4:30 PM66 °FOvercast.8 mph56%29.86 "HgN/A
4:00 PM66 °FOvercast.10 mph56%29.86 "HgN/A
3:30 PM66 °FOvercast.10 mph52%29.86 "HgN/A
3:00 PM66 °FOvercast.10 mph49%29.89 "HgN/A
Weather by CustomWeather, © 2015

See weather overviewHow to use our weather pages